Location: NJAA Observatory
(40.6819°N, 74.8979°W)
Time: 04:58:13
(UTC-04:00)

Cosmos 2263 Rocket - Visible Passes

Search period start: 25 July 2014 00:00
Search period end: 04 August 2014 00:00
Orbit: 824 x 849 km, 71.0° (Epoch: 23 July)

Date Brightness Start Highest point End Pass type
(mag) Time Alt. Az. Time Alt. Az. Time Alt. Az.
25 Jul 2.9 02:27:45 39° ESE 02:28:23 40° ESE 02:33:38 10° NE visible
25 Jul 3.4 04:09:28 20° WSW 04:12:23 30° WNW 04:17:21 10° N visible
26 Jul 3.1 02:11:38 37° ESE 02:11:48 37° ESE 02:16:57 10° NE visible
26 Jul 3.3 03:53:20 23° W 03:55:44 32° WNW 04:00:48 10° N visible
27 Jul 3.3 01:55:29 34° E 01:55:29 34° E 02:00:16 10° NE visible
27 Jul 3.2 03:37:11 28° W 03:39:05 35° WNW 03:44:15 10° N visible
28 Jul 3.4 01:39:18 30° E 01:39:18 30° E 01:43:34 10° NE visible
28 Jul 3.0 03:21:00 32° W 03:22:26 37° WNW 03:27:42 10° N visible
29 Jul 3.6 01:23:05 27° E 01:23:05 27° E 01:26:51 10° NE visible
29 Jul 2.9 03:04:47 37° W 03:05:48 40° WNW 03:11:08 10° N visible
30 Jul 3.8 01:06:51 24° E 01:06:51 24° E 01:10:07 10° NE visible
30 Jul 2.8 02:48:33 42° WNW 02:49:09 44° WNW 02:54:34 10° NNE visible
31 Jul 4.0 00:50:35 21° ENE 00:50:35 21° ENE 00:53:23 10° NE visible
31 Jul 2.7 02:32:17 47° WNW 02:32:31 47° WNW 02:38:00 10° NNE visible
01 Aug 4.1 00:34:18 19° ENE 00:34:18 19° ENE 00:36:38 10° NE visible
01 Aug 2.7 02:15:59 51° WNW 02:15:59 51° WNW 02:21:25 10° NNE visible
02 Aug 4.2 00:17:59 17° ENE 00:17:59 17° ENE 00:19:51 10° NE visible
02 Aug 2.6 01:59:40 54° NW 01:59:40 54° NW 02:04:50 10° NNE visible
03 Aug 4.3 00:01:38 15° ENE 00:01:38 15° ENE 00:03:03 10° ENE visible
03 Aug 2.7 01:43:19 56° NNW 01:43:19 56° NNW 01:48:15 10° NNE visible
03 Aug 4.6 03:26:57 10° NW 03:27:48 10° NW 03:28:40 10° NW visible
03 Aug 4.4 23:45:15 13° ENE 23:45:15 13° ENE 23:46:13 10° ENE visible
